Погода в Березовке

Украина / Житомирская область     49°46′24″N   27°51′00″E
темп.,
°C
ветер,
м/с
пор.,
м/с
влажн.,
%
обл.,
%
осадки,
мм/ч
давл.,
гПа
погр.,
м
21 апреля, ср
ср2100:00+5сз3490100 0.0 101184
03:00+4сз349470 0.0 101279
06:00+3зсз349526 0.0 101281
09:00+7зсз3477100 0.0 1013376
12:00+10з4563100 0.0 1013997
15:00+13зюз5756100 0.3 10131685
18:00+11зюз3669100 1.3 1013411
21:00+8ююз347767 1.4 101456
22 апреля, чт
чт2200:00+7юз41085100 0.1 1015163
03:00+7юз4984100 0.1 1015182
06:00+7юз488767 0.0 1015175
09:00+11юз497196 0.0 1015500
12:00+15юз795574 0.2 10151747
15:00+14юз585893 1.4 10141468
18:00+15ююз585622 0.1 10131561
21:00+8зсз489198 2.3 1016331
23 апреля, пт
пт2300:00+6ссз349654 0.3 101682
03:00+6сз4791100 1.4 1016591
06:00+5зсз2488100 0.8 1017334
09:00+4ссв1383100 2.8 1018411
12:00+7зсз4567100 0.8 10181254
15:00+9зсз374498 0.9 10172078
18:00+9сз595510 0.5 10162086
21:00+4зсз377240 0.7 1019142
24 апреля, сб
сб2400:00+2з367937 0.0 1019116
03:00+1з4986100 0.0 1019251
06:00+1з410955 0.0 1019312
09:00+4зсз697481 0.0 1020858
12:00+6зсз7955100 0.8 10201812
15:00+7зсз81049100 1.3 10192085
18:00+6зсз7105765 0.8 10191668
21:00+3зсз49719 0.9 1020254
25 апреля, вс
вс2500:00+1зюз357770 0.0 102083
03:00+2зюз3890100 0.2 1020361
06:00+2з5989100 0.0 1019623
09:00+3з4674100 0.0 1019979
12:00+5зсз675899 0.4 10191411
15:00+6зсз7848100 0.4 10181875
18:00+6зсз6855100 0.1 10181525
21:00+2з3675100 0.4 1019125